{"data":{"norad_id":26702,"epoch":"2026-08-03T13:19:32.775744Z","epoch_age_seconds":4153625,"freshness":"OLD","line1":"1 26702U 01007A   26215.55524046  .18524984  25409-5  51896-3 0  9990","line2":"2 26702  97.3527 260.5021 0013244 271.8135  88.1649 16.44308982396929","mean_motion":16.44308982,"eccentricity":0.0013244,"inclination_deg":97.3527,"raan_deg":260.5021,"arg_perigee_deg":271.8135,"mean_anomaly_deg":88.1649,"bstar":0.00051896,"rev_number":39692,"period_min":87.574781611209,"perigee_km":145.71341260584,"apogee_km":163.01670405795,"semimajor_km":6532.5020583319,"source":"CELESTRAK","updated_at":"2026-08-04T09:01:27.282850Z"}}